Location: *
(53.4003°S, 165.3236°W)
Time: 02:46:50
(UTC+00:00)

Cosmos 292 Rocket - Pass Details

Date: 11 December 2023
Orbit: 669 x 689 km, 74.0° (Epoch: 24 February)

Event Time Altitude Azimuth Distance (km) Brightness Sun altitude
Exits shadow 12:47:11 13° 333° (NNW) 1,958 5.4 -9.8°
Maximum altitude 12:51:33 84° 244° (WSW) 710 3.8 -9.5°
Drops below altitude 10° 12:56:28 10° 155° (SSE) 2,169 8.0 -9.2°
Sets 12:58:47 0° 153° (SSE) 3,088 9.6 -9.0°
